| time (UTC) | temp C | wind direction | speed KPH | gust KPH | rain 1hr cm | rain 24hr cm | rain mn cm | humidity % | barometer mb |
| 20260505124754 | 12 | 105 | 1.6 | 11.3 | 0.00 | 0.00 | 0.00 | 86 | 1013.9 |
| 20260505124251 | 12 | 156 | 4.8 | 12.9 | 0.00 | 0.00 | 0.00 | 86 | 1013.8 |
| 20260505123746 | 12 | 140 | 1.6 | 9.7 | 0.00 | 0.00 | 0.00 | 87 | 1014.0 |
| 20260505123243 | 12 | 68 | 3.2 | 9.7 | 0.00 | 0.00 | 0.00 | 87 | 1014.1 |
| 20260505122740 | 12 | 115 | 1.6 | 4.8 | 0.00 | 0.00 | 0.00 | 87 | 1013.9 |
| 20260505122237 | 12 | 109 | 8.0 | 12.9 | 0.00 | 0.00 | 0.00 | 87 | 1014.0 |
| 20260505121734 | 12 | 107 | 6.4 | 16.1 | 0.00 | 0.00 | 0.00 | 87 | 1013.9 |
| 20260505121230 | 12 | 149 | 9.7 | 14.5 | 0.00 | 0.00 | 0.00 | 88 | 1013.9 |
| 20260505120727 | 12 | 125 | 9.7 | 11.3 | 0.00 | 0.00 | 0.00 | 88 | 1013.8 |
| 20260505120223 | 11 | 91 | 3.2 | 12.9 | 0.00 | 0.00 | 0.00 | 88 | 1013.6 |
| 20260505115721 | 12 | 106 | 4.8 | 14.5 | 0.00 | 0.00 | 0.00 | 88 | 1013.8 |
| 20260505115220 | 12 | 144 | 9.7 | 14.5 | 0.00 | 0.00 | 0.00 | 88 | 1013.9 |
| 20260505114717 | 12 | 107 | 4.8 | 12.9 | 0.00 | 0.00 | 0.00 | 88 | 1013.8 |
| 20260505114212 | 12 | 92 | 8.0 | 11.3 | 0.00 | 0.00 | 0.00 | 88 | 1013.6 |
| 20260505113709 | 12 | 97 | 3.2 | 14.5 | 0.00 | 0.00 | 0.00 | 88 | 1013.5 |
| 20260505113206 | 12 | 100 | 8.0 | 12.9 | 0.00 | 0.00 | 0.00 | 88 | 1013.9 |
| 20260505112702 | 11 | 116 | 6.4 | 16.1 | 0.00 | 0.00 | 0.00 | 88 | 1013.5 |
| 20260505112200 | 12 | 161 | 3.2 | 11.3 | 0.00 | 0.00 | 0.00 | 88 | 1013.7 |
| 20260505111700 | 12 | 148 | 8.0 | 14.5 | 0.00 | 0.00 | 0.00 | 88 | 1013.7 |
| 20260505111155 | 12 | 107 | 0.0 | 9.7 | 0.00 | 0.00 | 0.00 | 88 | 1013.3 |
| 20260505110652 | 12 | 89 | 8.0 | 11.3 | 0.00 | 0.00 | 0.00 | 88 | 1013.5 |
| 20260505110149 | 12 | 85 | 4.8 | 11.3 | 0.00 | 0.00 | 0.00 | 88 | 1013.6 |
| 20260505102125 | 11 | 112 | 8.0 | 14.5 | 0.00 | 0.00 | 0.00 | 89 | 1013.0 |
| 20260505101624 | 11 | 90 | 6.4 | 14.5 | 0.00 | 0.00 | 0.00 | 89 | 1013.2 |
| 20260505101119 | 11 | 109 | 12.9 | 14.5 | 0.00 | 0.00 | 0.00 | 89 | 1013.2 |
| 20260505100616 | 11 | 78 | 0.0 | 14.5 | 0.00 | 0.00 | 0.00 | 89 | 1013.1 |
| 20260505100113 | 11 | 100 | 3.2 | 17.7 | 0.00 | 0.00 | 0.00 | 89 | 1013.0 |
| 20260505095609 | 11 | 150 | 4.8 | 11.3 | 0.00 | 0.00 | 0.00 | 89 | 1013.2 |
| 20260505095106 | 11 | 165 | 4.8 | 14.5 | 0.00 | 0.00 | 0.00 | 89 | 1013.1 |
| 20260505094602 | 11 | 100 | 6.4 | 11.3 | 0.00 | 0.00 | 0.00 | 89 | 1012.8 |
| 20260505094058 | 11 | 130 | 9.7 | 20.9 | 0.00 | 0.00 | 0.00 | 89 | 1012.9 |
| 20260505093554 | 11 | 59 | 6.4 | 14.5 | 0.00 | 0.00 | 0.00 | 89 | 1012.6 |
| 20260505093052 | 11 | 156 | 6.4 | 11.3 | 0.00 | 0.00 | 0.00 | 89 | 1013.0 |
| 20260505092549 | 12 | 106 | 6.4 | 12.9 | 0.00 | 0.00 | 0.00 | 89 | 1012.7 |
| 20260505092048 | 11 | 104 | 6.4 | 9.7 | 0.00 | 0.00 | 0.00 | 89 | 1012.8 |
| 20260505091544 | 12 | 124 | 8.0 | 9.7 | 0.00 | 0.00 | 0.00 | 89 | 1012.6 |
| 20260505091043 | 12 | 151 | 4.8 | 11.3 | 0.00 | 0.00 | 0.00 | 89 | 1012.6 |
| 20260505090541 | 12 | 96 | 1.6 | 12.9 | 0.00 | 0.00 | 0.00 | 89 | 1012.8 |
| 20260505090038 | 12 | 146 | 8.0 | 16.1 | 0.00 | 0.00 | 0.00 | 88 | 1012.7 |
| 20260505085536 | 12 | 134 | 6.4 | 11.3 | 0.00 | 0.00 | 0.00 | 88 | 1012.7 |
| 20260505085034 | 12 | 129 | 1.6 | 4.8 | 0.00 | 0.00 | 0.00 | 88 | 1012.6 |
| 20260505084532 | 12 | 83 | 1.6 | 9.7 | 0.00 | 0.00 | 0.00 | 88 | 1012.6 |
| 20260505084030 | 12 | 134 | 4.8 | 12.9 | 0.00 | 0.00 | 0.00 | 88 | 1012.3 |
| 20260505083526 | 12 | 155 | 4.8 | 14.5 | 0.00 | 0.00 | 0.00 | 88 | 1012.3 |
| 20260505083023 | 12 | 105 | 8.0 | 12.9 | 0.00 | 0.00 | 0.00 | 88 | 1012.3 |
| 20260505082518 | 12 | 141 | 6.4 | 14.5 | 0.00 | 0.00 | 0.00 | 88 | 1012.4 |
| 20260505082015 | 12 | 177 | 11.3 | 17.7 | 0.00 | 0.00 | 0.00 | 88 | 1012.2 |
| 20260505081512 | 12 | 121 | 11.3 | 16.1 | 0.00 | 0.00 | 0.00 | 87 | 1012.3 |
| 20260505081009 | 12 | 41 | 6.4 | 14.5 | 0.00 | 0.00 | 0.00 | 87 | 1012.3 |
| 20260505080505 | 12 | 144 | 6.4 | 11.3 | 0.00 | 0.00 | 0.00 | 87 | 1012.2 |
| 20260505080001 | 12 | 107 | 4.8 | 8.0 | 0.00 | 0.00 | 0.00 | 87 | 1012.3 |
| 20260505075458 | 12 | 119 | 3.2 | 9.7 | 0.00 | 0.00 | 0.00 | 87 | 1012.4 |
| 20260505074955 | 12 | 112 | 4.8 | 17.7 | 0.00 | 0.00 | 0.00 | 87 | 1012.3 |
| 20260505074452 | 12 | 123 | 6.4 | 12.9 | 0.00 | 0.00 | 0.00 | 86 | 1012.3 |
| 20260505073949 | 12 | 93 | 9.7 | 16.1 | 0.00 | 0.00 | 0.00 | 86 | 1012.5 |
| 20260505073447 | 12 | 110 | 4.8 | 9.7 | 0.00 | 0.00 | 0.00 | 86 | 1012.2 |
| 20260505072944 | 12 | 94 | 3.2 | 12.9 | 0.00 | 0.00 | 0.00 | 86 | 1012.1 |
| 20260505072440 | 12 | 145 | 3.2 | 11.3 | 0.00 | 0.00 | 0.00 | 85 | 1012.2 |
| 20260505071936 | 12 | 131 | 3.2 | 8.0 | 0.00 | 0.00 | 0.00 | 85 | 1011.9 |
| 20260505071432 | 12 | 172 | 4.8 | 12.9 | 0.00 | 0.00 | 0.00 | 85 | 1012.0 |
| 20260505070931 | 12 | 152 | 9.7 | 12.9 | 0.00 | 0.00 | 0.00 | 84 | 1011.9 |
| 20260505070427 | 13 | 65 | 4.8 | 12.9 | 0.00 | 0.00 | 0.00 | 84 | 1011.7 |
| 20260505065923 | 13 | 123 | 8.0 | 12.9 | 0.00 | 0.00 | 0.00 | 84 | 1011.8 |
| 20260505065419 | 13 | 92 | 11.3 | 14.5 | 0.00 | 0.00 | 0.00 | 84 | 1011.6 |
| 20260505064916 | 13 | 103 | 8.0 | 11.3 | 0.00 | 0.00 | 0.00 | 83 | 1011.6 |
| 20260505064414 | 13 | 107 | 3.2 | 11.3 | 0.00 | 0.00 | 0.00 | 83 | 1011.8 |
| 20260505063912 | 13 | 131 | 9.7 | 12.9 | 0.00 | 0.00 | 0.00 | 82 | 1011.7 |
| 20260505063407 | 13 | 82 | 6.4 | 16.1 | 0.00 | 0.00 | 0.00 | 82 | 1011.4 |
| 20260505062904 | 13 | 113 | 4.8 | 16.1 | 0.00 | 0.00 | 0.00 | 82 | 1011.6 |
| 20260505062401 | 13 | 117 | 8.0 | 11.3 | 0.00 | 0.00 | 0.00 | 82 | 1011.7 |
| 20260505061858 | 13 | 138 | 8.0 | 14.5 | 0.00 | 0.00 | 0.00 | 81 | 1011.3 |
| 20260505061357 | 13 | 117 | 1.6 | 11.3 | 0.00 | 0.00 | 0.00 | 80 | 1011.2 |
| 20260505060854 | 14 | 85 | 1.6 | 11.3 | 0.00 | 0.00 | 0.00 | 80 | 1011.2 |
| 20260505060350 | 14 | 96 | 8.0 | 12.9 | 0.00 | 0.00 | 0.00 | 79 | 1011.1 |
| 20260505055846 | 14 | 76 | 8.0 | 14.5 | 0.00 | 0.00 | 0.00 | 79 | 1011.1 |
| 20260505055342 | 14 | 109 | 4.8 | 14.5 | 0.00 | 0.00 | 0.00 | 79 | 1011.0 |
| 20260505054840 | 14 | 89 | 6.4 | 11.3 | 0.00 | 0.00 | 0.00 | 79 | 1011.0 |
| 20260505054337 | 15 | 94 | 4.8 | 14.5 | 0.00 | 0.00 | 0.00 | 78 | 1010.8 |
| 20260505053835 | 15 | 99 | 0.0 | 8.0 | 0.00 | 0.00 | 0.00 | 78 | 1010.8 |
| 20260505053332 | 15 | 89 | 3.2 | 12.9 | 0.00 | 0.00 | 0.00 | 77 | 1011.0 |
| 20260505052828 | 15 | 80 | 4.8 | 16.1 | 0.00 | 0.00 | 0.00 | 77 | 1010.7 |
| 20260505052325 | 15 | 106 | 9.7 | 22.5 | 0.00 | 0.00 | 0.00 | 76 | 1010.6 |
| 20260505051823 | 15 | 129 | 11.3 | 14.5 | 0.00 | 0.00 | 0.00 | 76 | 1010.7 |
| 20260505051320 | 15 | 101 | 6.4 | 14.5 | 0.00 | 0.00 | 0.00 | 75 | 1010.6 |
| 20260505050818 | 15 | 108 | 11.3 | 14.5 | 0.00 | 0.00 | 0.00 | 75 | 1010.7 |
| 20260505050317 | 15 | 56 | 6.4 | 14.5 | 0.00 | 0.00 | 0.00 | 74 | 1010.7 |
| 20260505041746 | 17 | 162 | 1.6 | 8.0 | 0.00 | 0.00 | 0.00 | 69 | 1010.0 |
| 20260505041243 | 17 | 96 | 1.6 | 4.8 | 0.00 | 0.00 | 0.00 | 69 | 1010.0 |
| 20260505040741 | 17 | 165 | 3.2 | 9.7 | 0.00 | 0.00 | 0.00 | 68 | 1010.0 |
| 20260505040238 | 18 | 155 | 1.6 | 9.7 | 0.00 | 0.00 | 0.00 | 67 | 1009.9 |
| 20260505035735 | 18 | 134 | 3.2 | 8.0 | 0.00 | 0.00 | 0.00 | 67 | 1009.9 |
| 20260505035231 | 18 | 116 | 1.6 | 8.0 | 0.00 | 0.00 | 0.00 | 66 | 1009.9 |
| 20260505034728 | 18 | 164 | 1.6 | 4.8 | 0.00 | 0.00 | 0.00 | 66 | 1009.9 |
| 20260505034224 | 18 | 178 | 1.6 | 3.2 | 0.00 | 0.00 | 0.00 | 65 | 1009.7 |
| 20260505033721 | 18 | 176 | 6.4 | 8.0 | 0.00 | 0.00 | 0.00 | 65 | 1009.6 |
| 20260505033219 | 19 | 149 | 3.2 | 3.2 | 0.00 | 0.00 | 0.00 | 64 | 1009.7 |
| 20260505032717 | 19 | 142 | 1.6 | 3.2 | 0.00 | 0.00 | 0.00 | 63 | 1009.5 |
| 20260505032212 | 20 | 162 | 3.2 | 4.8 | 0.00 | 0.00 | 0.00 | 61 | 1009.5 |
| 20260505031710 | 20 | 145 | 0.0 | 3.2 | 0.00 | 0.00 | 0.00 | 60 | 1009.5 |
| 20260505031206 | 20 | 169 | 0.0 | 1.6 | 0.00 | 0.00 | 0.00 | 57 | 1009.6 |
| 20260505030703 | 21 | 172 | 1.6 | 3.2 | 0.00 | 0.00 | 0.00 | 54 | 1009.4 |
| 20260505030159 | 20 | 199 | 1.6 | 1.6 | 0.00 | 0.00 | 0.00 | 52 | 1009.4 |
| 20260505025655 | 20 | 202 | 3.2 | 8.0 | 0.00 | 0.00 | 0.00 | 52 | 1009.4 |
| 20260505025154 | 21 | 236 | 3.2 | 4.8 | 0.00 | 0.00 | 0.00 | 52 | 1009.2 |
| 20260505024651 | 21 | 221 | 1.6 | 1.6 | 0.00 | 0.00 | 0.00 | 51 | 1009.1 |
| 20260505024148 | 21 | 206 | 1.6 | 3.2 | 0.00 | 0.00 | 0.00 | 49 | 1009.1 |
| 20260505023646 | 21 | 227 | 1.6 | 4.8 | 0.00 | 0.00 | 0.00 | 51 | 1009.1 |
| 20260505023143 | 21 | 201 | 3.2 | 8.0 | 0.00 | 0.00 | 0.00 | 50 | 1009.1 |
| 20260505022640 | 21 | 258 | 4.8 | 8.0 | 0.00 | 0.00 | 0.00 | 50 | 1009.2 |
| 20260505022137 | 21 | 234 | 3.2 | 4.8 | 0.00 | 0.00 | 0.00 | 50 | 1009.2 |
| 20260505021634 | 21 | 286 | 4.8 | 8.0 | 0.00 | 0.00 | 0.00 | 51 | 1009.1 |
| 20260505021130 | 21 | 253 | 4.8 | 11.3 | 0.00 | 0.00 | 0.00 | 52 | 1009.4 |
| 20260505020626 | 21 | 236 | 4.8 | 8.0 | 0.00 | 0.00 | 0.00 | 52 | 1009.1 |
| 20260505020122 | 21 | 216 | 1.6 | 9.7 | 0.00 | 0.00 | 0.00 | 52 | 1009.2 |
| 20260505015619 | 21 | 245 | 8.0 | 11.3 | 0.00 | 0.00 | 0.00 | 52 | 1009.0 |
| 20260505015116 | 21 | 224 | 4.8 | 14.5 | 0.00 | 0.00 | 0.00 | 53 | 1009.5 |
| 20260505014613 | 21 | 235 | 8.0 | 11.3 | 0.00 | 0.00 | 0.00 | 53 | 1009.2 |
| 20260505014110 | 22 | 250 | 4.8 | 8.0 | 0.00 | 0.00 | 0.00 | 53 | 1009.0 |
| 20260505013607 | 22 | 228 | 8.0 | 9.7 | 0.00 | 0.00 | 0.00 | 51 | 1009.1 |
| 20260505013104 | 25 | 236 | 6.4 | 9.7 | 0.00 | 0.00 | 0.00 | 48 | 1009.1 |
| 20260505012602 | 25 | 217 | 8.0 | 11.3 | 0.00 | 0.00 | 0.00 | 45 | 1009.0 |
| 20260505012059 | 25 | 185 | 4.8 | 9.7 | 0.00 | 0.00 | 0.00 | 45 | 1009.2 |
| 20260505011554 | 25 | 162 | 3.2 | 8.0 | 0.00 | 0.00 | 0.00 | 44 | 1009.1 |
| 20260505011052 | 25 | 166 | 3.2 | 9.7 | 0.00 | 0.00 | 0.00 | 44 | 1009.4 |
| 20260505010547 | 25 | 137 | 3.2 | 4.8 | 0.00 | 0.00 | 0.00 | 43 | 1009.1 |
| 20260505010044 | 25 | 145 | 4.8 | 8.0 | 0.00 | 0.00 | 0.00 | 42 | 1009.2 |
| 20260505005540 | 26 | 113 | 6.4 | 11.3 | 0.00 | 0.00 | 0.00 | 41 | 1009.0 |
| 20260505005038 | 25 | 170 | 3.2 | 4.8 | 0.00 | 0.00 | 0.00 | 40 | 1009.2 |
| 20260505004535 | 26 | 121 | 3.2 | 9.7 | 0.00 | 0.00 | 0.00 | 40 | 1009.0 |
| 20260505004032 | 26 | 147 | 4.8 | 11.3 | 0.00 | 0.00 | 0.00 | 40 | 1009.4 |
| 20260505003529 | 26 | 93 | 1.6 | 9.7 | 0.00 | 0.00 | 0.00 | 40 | 1009.2 |
| 20260505003026 | 26 | 97 | 1.6 | 4.8 | 0.00 | 0.00 | 0.00 | 39 | 1009.4 |
| 20260505002527 | 26 | 148 | 1.6 | 9.7 | 0.00 | 0.00 | 0.00 | 39 | 1009.0 |
| 20260505002026 | 26 | 110 | 1.6 | 4.8 | 0.00 | 0.00 | 0.00 | 38 | 1009.2 |
| 20260505001523 | 26 | 158 | 6.4 | 9.7 | 0.00 | 0.00 | 0.00 | 38 | 1009.5 |
| 20260505001020 | 26 | 196 | 1.6 | 9.7 | 0.00 | 0.00 | 0.00 | 39 | 1009.2 |
| 20260505000517 | 26 | 112 | 3.2 | 4.8 | 0.00 | 0.00 | 0.00 | 37 | 1009.2 |
| 20260505000015 | 26 | 124 | 3.2 | 9.7 | 0.00 | 0.00 | 0.00 | 38 | 1009.6 |
| 20260504235511 | 25 | 143 | 4.8 | 9.7 | 0.00 | 0.00 | 0.00 | 38 | 1009.4 |
| 20260504235008 | 26 | 95 | 4.8 | 9.7 | 0.00 | 0.00 | 0.00 | 38 | 1009.2 |
| 20260504234505 | 26 | 175 | 6.4 | 8.0 | 0.00 | 0.00 | 0.00 | 37 | 1009.4 |
| 20260504234002 | 26 | 182 | 4.8 | 9.7 | 0.00 | 0.00 | 0.00 | 37 | 1009.4 |
| 20260504233457 | 26 | 182 | 3.2 | 8.0 | 0.00 | 0.00 | 0.00 | 40 | 1009.2 |
| 20260504232954 | 25 | 117 | 3.2 | 12.9 | 0.00 | 0.00 | 0.00 | 38 | 1009.2 |
| 20260504232451 | 26 | 127 | 1.6 | 8.0 | 0.00 | 0.00 | 0.00 | 38 | 1009.4 |
| 20260504231949 | 26 | 119 | 6.4 | 11.3 | 0.00 | 0.00 | 0.00 | 38 | 1009.5 |
| 20260504231445 | 26 | 106 | 4.8 | 8.0 | 0.00 | 0.00 | 0.00 | 37 | 1009.7 |
| 20260504230941 | 26 | 106 | 3.2 | 9.7 | 0.00 | 0.00 | 0.00 | 37 | 1009.4 |
| 20260504230438 | 26 | 166 | 4.8 | 9.7 | 0.00 | 0.00 | 0.00 | 39 | 1009.5 |
| 20260504225937 | 26 | 166 | 3.2 | 9.7 | 0.00 | 0.00 | 0.00 | 37 | 1009.2 |
| 20260504225433 | 26 | 115 | 6.4 | 12.9 | 0.00 | 0.00 | 0.00 | 38 | 1009.5 |
| 20260504224931 | 26 | 111 | 1.6 | 8.0 | 0.00 | 0.00 | 0.00 | 37 | 1009.7 |
| 20260504224427 | 26 | 181 | 8.0 | 11.3 | 0.00 | 0.00 | 0.00 | 37 | 1009.8 |
| 20260504223924 | 26 | 124 | 4.8 | 4.8 | 0.00 | 0.00 | 0.00 | 37 | 1009.9 |
| 20260504223420 | 26 | 164 | 4.8 | 8.0 | 0.00 | 0.00 | 0.00 | 38 | 1009.8 |
| 20260504222916 | 25 | 158 | 4.8 | 9.7 | 0.00 | 0.00 | 0.00 | 38 | 1009.9 |
| 20260504222414 | 25 | 222 | 11.3 | 14.5 | 0.00 | 0.00 | 0.00 | 39 | 1010.1 |
| 20260504221912 | 26 | 90 | 3.2 | 4.8 | 0.00 | 0.00 | 0.00 | 39 | 1010.1 |
| 20260504221408 | 26 | 113 | 8.0 | 11.3 | 0.00 | 0.00 | 0.00 | 38 | 1010.1 |
| 20260504220905 | 25 | 69 | 3.2 | 8.0 | 0.00 | 0.00 | 0.00 | 39 | 1010.1 |
| 20260504220402 | 26 | 189 | 1.6 | 8.0 | 0.00 | 0.00 | 0.00 | 39 | 1010.2 |
| 20260504215859 | 26 | 192 | 9.7 | 12.9 | 0.00 | 0.00 | 0.00 | 40 | 1010.3 |
| 20260504215355 | 26 | 194 | 8.0 | 9.7 | 0.00 | 0.00 | 0.00 | 40 | 1010.5 |
| 20260504214851 | 25 | 107 | 4.8 | 8.0 | 0.00 | 0.00 | 0.00 | 42 | 1010.2 |
| 20260504214348 | 26 | 173 | 1.6 | 11.3 | 0.00 | 0.00 | 0.00 | 44 | 1010.5 |
| 20260504213845 | 25 | 149 | 1.6 | 9.7 | 0.00 | 0.00 | 0.00 | 45 | 1010.4 |
| 20260504213341 | 25 | 139 | 1.6 | 9.7 | 0.00 | 0.00 | 0.00 | 46 | 1010.4 |
| 20260504212839 | 25 | 147 | 1.6 | 8.0 | 0.00 | 0.00 | 0.00 | 45 | 1010.3 |
| 20260504212334 | 25 | 152 | 6.4 | 12.9 | 0.00 | 0.00 | 0.00 | 47 | 1010.7 |
| 20260504211833 | 25 | 164 | 1.6 | 11.3 | 0.00 | 0.00 | 0.00 | 47 | 1010.5 |
| 20260504211328 | 25 | 143 | 1.6 | 8.0 | 0.00 | 0.00 | 0.00 | 46 | 1010.5 |
| 20260504210826 | 25 | 105 | 3.2 | 12.9 | 0.00 | 0.00 | 0.00 | 47 | 1010.7 |
| 20260504210322 | 24 | 159 | 4.8 | 11.3 | 0.00 | 0.00 | 0.00 | 48 | 1010.8 |
| 20260504205820 | 25 | 148 | 4.8 | 11.3 | 0.00 | 0.00 | 0.00 | 46 | 1010.6 |
| 20260504205317 | 24 | 68 | 4.8 | 11.3 | 0.00 | 0.00 | 0.00 | 46 | 1010.6 |
| 20260504204815 | 25 | 155 | 4.8 | 9.7 | 0.00 | 0.00 | 0.00 | 46 | 1010.5 |
| 20260504204314 | 24 | 170 | 3.2 | 8.0 | 0.00 | 0.00 | 0.00 | 44 | 1010.7 |
| 20260504203813 | 24 | 126 | 6.4 | 9.7 | 0.00 | 0.00 | 0.00 | 43 | 1010.6 |
| 20260504203309 | 23 | 92 | 3.2 | 11.3 | 0.00 | 0.00 | 0.00 | 45 | 1010.7 |
| 20260504202804 | 24 | 89 | 0.0 | 11.3 | 0.00 | 0.00 | 0.00 | 44 | 1010.7 |
| 20260504202304 | 23 | 105 | 3.2 | 12.9 | 0.00 | 0.00 | 0.00 | 44 | 1010.8 |
| 20260504201759 | 23 | 158 | 4.8 | 9.7 | 0.00 | 0.00 | 0.00 | 43 | 1010.6 |
| 20260504201256 | 24 | 186 | 6.4 | 9.7 | 0.00 | 0.00 | 0.00 | 42 | 1010.7 |
| 20260504200754 | 23 | 89 | 9.7 | 11.3 | 0.00 | 0.00 | 0.00 | 40 | 1010.7 |
| 20260504200249 | 23 | 186 | 4.8 | 9.7 | 0.00 | 0.00 | 0.00 | 41 | 1010.8 |
| 20260504195746 | 24 | 119 | 4.8 | 9.7 | 0.00 | 0.00 | 0.00 | 40 | 1010.6 |
| 20260504195242 | 23 | 123 | 0.0 | 4.8 | 0.00 | 0.00 | 0.00 | 41 | 1010.7 |
| 20260504194739 | 23 | 117 | 3.2 | 11.3 | 0.00 | 0.00 | 0.00 | 40 | 1010.7 |
| 20260504194235 | 23 | 95 | 8.0 | 11.3 | 0.00 | 0.00 | 0.00 | 39 | 1010.5 |
| 20260504193731 | 23 | 174 | 3.2 | 12.9 | 0.00 | 0.00 | 0.00 | 40 | 1010.7 |
| 20260504193229 | 23 | 104 | 1.6 | 9.7 | 0.00 | 0.00 | 0.00 | 39 | 1010.8 |
| 20260504192727 | 23 | 97 | 8.0 | 9.7 | 0.00 | 0.00 | 0.00 | 37 | 1010.7 |
| 20260504192225 | 23 | 106 | 6.4 | 11.3 | 0.00 | 0.00 | 0.00 | 36 | 1010.8 |
| 20260504191724 | 23 | 117 | 6.4 | 11.3 | 0.00 | 0.00 | 0.00 | 36 | 1010.8 |
| 20260504191220 | 24 | 120 | 4.8 | 8.0 | 0.00 | 0.00 | 0.00 | 36 | 1011.0 |
| 20260504190715 | 23 | 146 | 3.2 | 8.0 | 0.00 | 0.00 | 0.00 | 38 | 1010.9 |
| 20260504190212 | 23 | 79 | 1.6 | 11.3 | 0.00 | 0.00 | 0.00 | 40 | 1010.9 |
| 20260504185709 | 23 | 39 | 0.0 | 3.2 | 0.00 | 0.00 | 0.00 | 39 | 1011.1 |
| 20260504185205 | 23 | 104 | 1.6 | 3.2 | 0.00 | 0.00 | 0.00 | 37 | 1011.3 |
| 20260504184701 | 23 | 81 | 1.6 | 3.2 | 0.00 | 0.00 | 0.00 | 41 | 1010.9 |
| 20260504184156 | 23 | 125 | 0.0 | 4.8 | 0.00 | 0.00 | 0.00 | 41 | 1011.0 |
| 20260504183654 | 23 | 82 | 0.0 | 9.7 | 0.00 | 0.00 | 0.00 | 42 | 1011.0 |
| 20260504183151 | 23 | 118 | 4.8 | 9.7 | 0.00 | 0.00 | 0.00 | 42 | 1011.0 |
| 20260504182649 | 23 | 71 | 4.8 | 9.7 | 0.00 | 0.00 | 0.00 | 43 | 1010.8 |
| 20260504182146 | 22 | 122 | 1.6 | 8.0 | 0.00 | 0.00 | 0.00 | 44 | 1011.1 |
| 20260504181643 | 22 | 153 | 4.8 | 8.0 | 0.00 | 0.00 | 0.00 | 47 | 1011.0 |
| 20260504181141 | 22 | 214 | 3.2 | 8.0 | 0.00 | 0.00 | 0.00 | 46 | 1011.0 |
| 20260504180640 | 22 | 162 | 4.8 | 8.0 | 0.00 | 0.00 | 0.00 | 46 | 1011.0 |
| 20260504180138 | 22 | 231 | 4.8 | 8.0 | 0.00 | 0.00 | 0.00 | 45 | 1011.1 |
| 20260504175635 | 22 | 172 | 0.0 | 1.6 | 0.00 | 0.00 | 0.00 | 43 | 1010.9 |
| 20260504175131 | 22 | 228 | 1.6 | 4.8 | 0.00 | 0.00 | 0.00 | 43 | 1011.0 |
| 20260504174630 | 21 | 196 | 1.6 | 4.8 | 0.00 | 0.00 | 0.00 | 46 | 1010.9 |
| 20260504174126 | 21 | 202 | 3.2 | 4.8 | 0.00 | 0.00 | 0.00 | 48 | 1011.0 |
| 20260504173623 | 21 | 132 | 4.8 | 4.8 | 0.00 | 0.00 | 0.00 | 46 | 1011.0 |
| 20260504173121 | 21 | 201 | 3.2 | 8.0 | 0.00 | 0.00 | 0.00 | 46 | 1010.9 |
| 20260504172617 | 21 | 204 | 3.2 | 4.8 | 0.00 | 0.00 | 0.00 | 48 | 1011.2 |
| 20260504172114 | 21 | 205 | 3.2 | 4.8 | 0.00 | 0.00 | 0.00 | 49 | 1011.3 |
| 20260504171610 | 22 | 92 | 0.0 | 3.2 | 0.00 | 0.00 | 0.00 | 45 | 1011.1 |
| 20260504171108 | 21 | 61 | 0.0 | 3.2 | 0.00 | 0.00 | 0.00 | 47 | 1011.0 |
| 20260504170603 | 21 | 157 | 3.2 | 4.8 | 0.00 | 0.00 | 0.00 | 48 | 1010.8 |
| 20260504150947 | 17 | 110 | 3.2 | 4.8 | 0.00 | 0.00 | 0.00 | 62 | 1010.5 |
| 20260504150443 | 17 | 99 | 1.6 | 1.6 | 0.00 | 0.00 | 0.00 | 62 | 1010.4 |
| 20260504140910 | 15 | 81 | 1.6 | 3.2 | 0.00 | 0.00 | 0.00 | 70 | 1010.1 |
| 20260504140406 | 14 | 90 | 1.6 | 3.2 | 0.00 | 0.00 | 0.00 | 69 | 1010.1 |
| 20260504130331 | 12 | 236 | 0.0 | 0.0 | 0.00 | 0.00 | 0.00 | 71 | 1009.2 |